Regional Weather Roundup
Issued by NWS

Home | Current Version | Previous Version | Graphics & Text | Print | Product List | Glossary On
Versions: 1 2 3 4 5 6 7 8 9 10 11 12 13 14 15 16 17 18 19 20 21 22 23 24 25 26 27 28 29 30 31 32 33 34 35 36 37 38 39 40 41 42 43 44 45 46 47 48 49 50
000
ASUS43 KDMX 270907
RWRIA

WEATHER ROUNDUP FOR IOWA
NATIONAL WEATHER SERVICE DES MOINES IA
400 AM CDT MON JUL 27 2015

NOTE: "FAIR" INDICATES FEW OR NO CLOUDS BELOW 12,000 FEET WITH NO
SIGNIFICANT WEATHER AND/OR OBSTRUCTIONS TO VISIBILITY.

* - THESE STATIONS ARE NOT NWS STATIONS...THUS NOT UNDER NWS
QUALITY CONTROL.  THEY ALSO DO NOT REPORT WEATHER SUCH
AS PRECIPITATION OR FOG.

IAZ001>003-012>014-020>022-031>034-043>046-271000-
   NORTHWEST IOWA

CITY           SKY/WX    TMP DP  RH WIND       PRES   REMARKS
CARROLL *      CLOUDY    73  73 100 CALM      29.90F
CHEROKEE *     CLOUDY    73  73 100 CALM      29.89S
DENISON *      CLOUDY    75  73  94 E5        29.87F
LE MARS *      CLOUDY    77  73  88 SE8       29.87F
ORANGE CITY *  CLEAR     72  70  94 CALM      29.89F
SHELDON *      CLOUDY    72  72 100 E7        29.88F
SIOUX CITY     CLOUDY    77  73  87 E8        29.85F
SPENCER        CLOUDY    72  70  93 E6        29.91F
STORM LAKE *   PTCLDY    72  72 100 SE6       29.92S
$$

IAZ055>058-069>071-079>083-090>094-271000-
   SOUTHWEST IOWA

CITY           SKY/WX    TMP DP  RH WIND       PRES   REMARKS
ATLANTIC *     MOCLDY    75  75 100 NE5       29.88F
AUDUBON *      MOCLDY    73  72  94 CALM      29.91S
CLARINDA *     CLEAR     77  77 100 CALM      29.88F
COUNCIL BLFS * CLEAR     77  75  94 SE7       29.87F
CRESTON *      CLOUDY    75  73  94 SE7       29.91F
HARLAN  *      PTCLDY    75  75 100 E5        29.91F
LAMONI         MOCLDY    76  73  91 SE5       29.91F
RED OAK *      CLEAR     77  77 100 CALM      29.87F
SHENANDOAH *   CLEAR     79  77  94 SE7       29.86F HX  83
$$

IAZ047>049-059>061-072>074-084-271000-
   CENTRAL IOWA

CITY           SKY/WX    TMP DP  RH WIND       PRES   REMARKS
AMES           MOCLDY    73  71  93 E3        29.91F
ANKENY *       CLEAR     72  72 100 CALM      29.90F
CHARITON *     PTCLDY    73  73 100 SE5       29.92S
DES MOINES     PTCLDY    77  72  84 E7        29.89F
GRINNELL*      CLOUDY    72  70  94 E6        29.94F FOG
KNOXVILLE *    CLEAR     73  72  94 E3        29.90F
MARSHALLTOWN   MOCLDY    71  71 100 E7        29.93F FOG
PELLA *        MOCLDY    73  73 100 SE5       29.93F
PERRY *          N/A     73  72  94 E5        29.90F
$$

IAZ004>006-015-016-023>025-035-036-271000-
   NORTH CENTRAL IOWA

CITY           SKY/WX    TMP DP  RH WIND       PRES   REMARKS
ALGONA *       MOCLDY    73  72  94 SE6       29.93F
CLARION *      PTCLDY    72  72 100 E10       29.92F
ESTHERVILLE    CLOUDY    70  70 100 SE5       29.92F FOG
FORT DODGE *   CLOUDY    72  70  94 E6        29.92F
MASON CITY     CLOUDY    71  71 100 SE8       29.96F
FOREST CITY *  CLOUDY    72  72 100 SE7       29.94F FOG
IOWA FALLS *   CLOUDY    72  70  94 E3        29.95F FOG
$$

IAZ007>011-017>019-026>030-037>042-050>054-066-271000-
   NORTHEAST IOWA

CITY           SKY/WX    TMP DP  RH WIND       PRES   REMARKS
CEDAR RAPIDS   CLOUDY    70  70 100 E8        29.95F
CHARLES CITY * MOCLDY    70  70 100 E6        29.97F
CLINTON *      MOCLDY    66  64  94 NE6       29.99S
DUBUQUE        MOCLDY    67  64  90 NE6       29.99S
MONTICELLO *   CLEAR     68  66  94 CALM      29.97F
OELWEIN *      CLEAR     68  68 100 SE6       29.98
WATERLOO       CLOUDY    69  68  96 SE5       29.95F
$$

IAZ064-065-067-068-078-271000-
   EAST CENTRAL IOWA

CITY           SKY/WX    TMP DP  RH WIND       PRES   REMARKS
DAVENPORT      MOCLDY    67  64  90 E5        29.97R
IOWA CITY      CLOUDY    71  69  93 NE6       29.96S
MT. PLEASANT * PTCLDY    73  70  88 NE5       29.94S FOG
MUSCATINE *    CLEAR     72  70  94 CALM      29.95S
QUAD CITIES    MOCLDY    69  65  86 NE3       29.95S
$$

IAZ062-063-075>077-085>089-095>099-271000-
   SOUTHEAST IOWA

CITY           SKY/WX    TMP DP  RH WIND       PRES   REMARKS
BURLINGTON     CLEAR     72  72 100 NE5       29.94R
FAIRFIELD *    CLEAR     72  70  94 E5        29.94S FOG
FORT MADISON * FOG       70  70 100 NE3       29.94S VSB 1
KEOKUK *       PTCLDY    73  73 100 CALM      29.92S
OSKALOOSA *      N/A     72  70  94 CALM      29.93F
CENTERVILLE *  CLEAR     72  72 100 E3        29.94F
OTTUMWA        PTCLDY    73  73 100 E5        29.91F
WASHINGTON *   FOG       72  72 100 CALM      29.96S VSB 0
$$

ABBREVIATIONS USED IN REMARKS
   TC - TEMPERATURES IN CELSIUS
  WCI - WIND CHILL INDEX
   HX - HEAT INDEX
  VSB - VISIBILITY
$$




USA.gov is the U.S. government's official web portal to all federal, state and local government web resources and services.